Location: Te Maire Creek
(41.1333°S, 175.9167°E)
Time: 01:39:35
(UTC+00:00)

CZ-2C R/B - Pass Details

Date: 19 May 2024
Orbit: 463 x 511 km, 97.8° (Epoch: 18 June)

Event Time Altitude Azimuth Distance (km) Brightness Sun altitude
Rises 17:40:27 0° 28° (NNE) 2,518 6.8 -18.9°
Reaches altitude 10° 17:42:32 10° 34° (NNE) 1,656 5.9 -18.6°
Maximum altitude 17:45:56 45° 107° (ESE) 675 3.6 -17.9°
Drops below altitude 10° 17:49:28 10° 180° (S) 1,710 5.2 -17.3°
Enters shadow 17:51:16 - 185° (S) 2,458 6.0 -17.0°
